FW4212 Weather Reports


Display with metric or nautical units.
time (UTC)temp
F
wind
direction
speed
MPH
gust
MPH
rain 1hr
in
rain 24hr
in
rain mn
in
humidity
%
barometer
mb
20260906212541 76 236 0.0 0.0 0.00 0.23 0.23 89 1013.4
20260906212043 76 236 0.0 0.0 0.00 0.23 0.23 90 1013.4
20260906211541 76 236 0.0 0.0 0.00 0.23 0.23 87 1013.5
20260906211040 76 236 0.0 0.0 0.00 0.23 0.23 88 1013.6
20260906210541 76 91 0.0 0.0 0.00 0.23 0.23 88 1014.0
20260906210040 76 91 0.0 0.0 0.00 0.23 0.23 88 1013.9
20260906205540 76 91 0.0 2.0 0.00 0.23 0.23 87 1013.9
20260906205039 76 91 0.0 2.0 0.00 0.23 0.23 86 1014.0
20260906204539 76 105 0.0 4.0 0.00 0.23 0.23 86 1014.2
20260906204038 76 115 2.0 4.0 0.00 0.23 0.23 84 1014.2
20260906203538 76 126 0.0 2.0 0.00 0.23 0.23 87 1014.3
20260906203039 76 355 0.0 0.0 0.00 0.23 0.23 90 1014.1
20260906202538 75 5 0.0 1.0 0.00 0.23 0.23 91 1013.9
20260906202038 74 74 0.0 0.0 0.00 0.23 0.23 92 1013.8
20260906201538 74 92 0.0 3.0 0.00 0.23 0.23 92 1013.7
20260906201037 74 92 0.0 3.0 0.00 0.23 0.23 93 1013.7
20260906200537 74 76 0.0 0.0 0.00 0.23 0.23 94 1013.9
20260906200038 74 76 0.0 0.0 0.00 0.23 0.23 94 1013.9
20260906195537 74 76 0.0 0.0 0.00 0.23 0.23 94 1014.0
20260906195036 74 76 0.0 0.0 0.00 0.23 0.23 95 1014.1
20260906194537 73 76 0.0 0.0 0.00 0.23 0.23 95 1014.2
20260906194036 73 36 0.0 0.0 0.00 0.23 0.23 95 1014.2
20260906193536 73 36 0.0 0.0 0.00 0.23 0.23 95 1014.4
20260906193039 73 36 0.0 0.0 0.00 0.23 0.23 95 1014.2
20260906192536 73 36 0.0 1.0 0.00 0.23 0.23 95 1014.2
20260906192036 73 36 0.0 1.0 0.00 0.23 0.23 95 1014.3
20260906191540 73 5 0.0 2.0 0.00 0.23 0.23 95 1014.5
20260906191036 73 5 0.0 2.0 0.00 0.23 0.23 94 1014.5
20260906190536 73 78 0.0 2.0 0.01 0.23 0.23 94 1014.2
20260906190036 73 85 0.0 2.0 0.03 0.23 0.23 94 1013.7
20260906185535 73 110 0.0 1.0 0.03 0.23 0.23 94 1013.6
20260906185035 73 110 0.0 1.0 0.03 0.23 0.23 94 1013.7
20260906184534 73 102 0.0 1.0 0.03 0.23 0.23 94 1013.8
20260906184034 73 117 0.0 0.0 0.03 0.23 0.23 94 1014.1
20260906183535 73 135 0.0 0.0 0.03 0.23 0.23 94 1014.3
20260906183044 73 112 0.0 0.0 0.03 0.23 0.23 93 1014.4
20260906182534 73 112 0.0 0.0 0.03 0.23 0.23 92 1014.7
20260906182034 74 110 0.0 3.0 0.03 0.23 0.23 90 1014.7
20260906181534 74 123 0.0 3.0 0.03 0.23 0.23 89 1014.6
20260906181034 74 95 0.0 4.0 0.03 0.23 0.23 88 1014.6
20260906180534 76 83 1.0 4.0 0.01 0.21 0.21 87 1014.6
20260906180033 77 5 0.0 6.0 0.00 0.20 0.20 84 1014.5
20260906175533 78 82 2.0 10.0 0.00 0.20 0.20 82 1014.1
20260906175033 78 141 2.0 10.0 0.00 0.20 0.20 82 1014.1
20260906174534 78 149 3.0 9.0 0.00 0.20 0.20 81 1014.0
20260906174032 78 126 3.0 9.0 0.00 0.20 0.20 81 1014.2
20260906173534 78 262 2.0 10.0 0.00 0.20 0.20 81 1014.3
20260906173033 78 151 6.0 10.0 0.00 0.20 0.20 80 1014.2
20260906172532 78 134 3.0 8.0 0.00 0.20 0.20 81 1014.2
20260906172032 78 93 2.0 8.0 0.00 0.20 0.20 82 1014.2
20260906171532 78 89 3.0 10.0 0.00 0.20 0.20 81 1014.1
20260906171031 78 107 4.0 10.0 0.00 0.20 0.20 81 1014.1
20260906170531 77 109 3.0 9.0 0.00 0.20 0.20 81 1014.1
20260906170033 77 116 5.0 9.0 0.00 0.20 0.20 82 1014.2
20260906165530 78 92 3.0 8.0 0.00 0.20 0.20 83 1014.2
20260906165031 77 53 2.0 8.0 0.00 0.20 0.20 82 1014.2
20260906164530 77 94 3.0 8.0 0.00 0.20 0.20 82 1014.3
20260906164029 76 109 2.0 6.0 0.00 0.20 0.20 85 1014.4
20260906163529 77 121 1.0 6.0 0.00 0.20 0.20 86 1014.5
20260906163029 77 144 2.0 10.0 0.00 0.20 0.20 83 1014.6
20260906162527 76 50 4.0 10.0 0.00 0.20 0.20 83 1014.7
20260906162026 75 138 2.0 9.0 0.00 0.20 0.20 81 1014.6
20260906161526 76 57 1.0 9.0 0.00 0.20 0.20 86 1014.7
20260906161025 75 74 0.0 7.0 0.00 0.20 0.20 82 1014.8
20260906160525 76 74 2.0 6.0 0.00 0.20 0.20 88 1014.9
20260906160023 74 90 0.0 4.0 0.00 0.20 0.20 86 1015.0
20260906155524 74 115 2.0 4.0 0.00 0.20 0.20 86 1015.1
20260906155021 74 167 0.0 4.0 0.00 0.20 0.20 88 1015.1
20260906154521 73 105 0.0 4.0 0.00 0.20 0.20 87 1015.2
20260906154022 73 157 0.0 2.0 0.00 0.20 0.20 90 1015.1
20260906153518 72 94 0.0 2.0 0.00 0.20 0.20 91 1015.1
20260906153026 72 250 0.0 4.0 0.01 0.20 0.20 92 1015.0
20260906152516 71 103 0.0 2.0 0.02 0.20 0.20 95 1014.9
20260906152017 70 250 0.0 2.0 0.03 0.20 0.20 96 1015.0
20260906151516 69 129 0.0 2.0 0.05 0.20 0.20 96 1015.0
20260906151016 69 128 0.0 2.0 0.13 0.20 0.20 96 1014.8
20260906150516 69 54 0.0 1.0 0.18 0.20 0.20 96 1014.7
20260906150017 68 323 0.0 3.0 0.20 0.20 0.20 96 1014.6
20260906145515 68 55 0.0 3.0 0.20 0.20 0.20 96 1014.6
20260906145015 68 74 0.0 3.0 0.20 0.20 0.20 96 1014.7
20260906144523 68 88 0.0 2.0 0.20 0.20 0.20 96 1014.8
20260906144015 68 78 0.0 2.0 0.20 0.20 0.20 95 1015.1
20260906143515 67 91 0.0 2.0 0.20 0.20 0.20 95 1015.3
20260906143014 68 219 0.0 3.0 0.19 0.19 0.19 95 1015.5
20260906142515 68 210 0.0 3.0 0.18 0.18 0.18 94 1015.3
20260906142018 68 205 1.0 3.0 0.17 0.17 0.17 93 1015.1
20260906141515 68 143 0.0 3.0 0.15 0.15 0.15 93 1015.0
20260906141013 69 342 0.0 5.0 0.07 0.07 0.07 91 1015.1
20260906140516 71 16 2.0 8.0 0.01 0.01 0.01 89 1015.4
20260906140020 71 346 3.0 8.0 0.00 0.00 0.00 91 1015.7
20260906135511 71 295 2.0 6.0 0.00 0.00 0.00 93 1015.7
20260906135010 71 328 0.0 4.0 0.00 0.00 0.00 93 1015.7
20260906134531 71 338 1.0 4.0 0.00 0.00 0.00 93 1016.0
20260906134009 71 27 0.0 0.0 0.00 0.00 0.00 93 1015.3
20260906133507 71 95 0.0 2.0 0.00 0.00 0.00 93 1014.9
20260906133007 71 98 0.0 2.0 0.00 0.00 0.00 94 1014.7
20260906132508 71 111 0.0 2.0 0.00 0.00 0.00 93 1014.7
20260906132008 71 69 0.0 1.0 0.00 0.00 0.00 93 1014.6
20260906131507 71 104 0.0 2.0 0.00 0.00 0.00 93 1014.6
20260906131009 71 68 0.0 3.0 0.00 0.00 0.00 94 1014.7
20260906130506 70 58 0.0 4.0 0.00 0.00 0.00 93 1014.7
20260906130005 70 96 1.0 4.0 0.00 0.00 0.00 94 1014.4
20260906125505 70 103 0.0 3.0 0.00 0.00 0.00 94 1014.5
20260906125005 70 94 1.0 3.0 0.00 0.00 0.00 94 1014.5
20260906124504 70 65 0.0 2.0 0.00 0.00 0.00 94 1014.5
20260906124003 70 63 1.0 2.0 0.00 0.00 0.00 94 1014.3
20260906123503 70 69 0.0 0.0 0.00 0.00 0.00 94 1014.1
20260906123003 70 98 0.0 0.0 0.00 0.00 0.00 94 1014.1
20260906122506 70 98 0.0 0.0 0.00 0.00 0.00 94 1014.1
20260906122003 70 98 0.0 0.0 0.00 0.00 0.00 94 1014.2
20260906121502 70 81 0.0 0.0 0.00 0.00 0.00 95 1014.1
20260906121100 70 220 0.0 0.0 0.00 0.00 0.00 95 1013.9
20260906120559 70 220 0.0 0.0 0.00 0.00 0.00 95 1013.6
20260906120059 69 220 0.0 0.0 0.00 0.00 0.00 96 1013.5
20260906115558 69 220 0.0 0.0 0.00 0.00 0.00 96 1013.4
20260906115057 69 220 0.0 0.0 0.00 0.00 0.00 96 1013.3
20260906114608 69 220 0.0 0.0 0.00 0.00 0.00 96 1013.2
20260906114058 69 220 0.0 0.0 0.00 0.00 0.00 96 1013.4
20260906113557 69 220 0.0 0.0 0.00 0.00 0.00 96 1013.3
20260906113058 68 220 0.0 0.0 0.00 0.00 0.00 96 1013.3
20260906112557 68 220 0.0 0.0 0.00 0.00 0.00 97 1013.4
20260906112100 68 220 0.0 0.0 0.00 0.00 0.00 96 1013.3
20260906111559 68 220 0.0 0.0 0.00 0.00 0.00 96 1013.1
20260906111057 68 220 0.0 0.0 0.00 0.00 0.00 96 1013.0
20260906110559 68 220 0.0 0.0 0.00 0.00 0.00 96 1013.0
20260906110100 68 220 0.0 0.0 0.00 0.00 0.00 96 1013.0
20260906105559 68 220 0.0 0.0 0.00 0.00 0.00 96 1013.0
20260906105056 68 220 0.0 0.0 0.00 0.00 0.00 96 1012.9
20260906104623 68 220 0.0 0.0 0.00 0.00 0.00 96 1013.0
20260906104056 68 220 0.0 0.0 0.00 0.00 0.00 96 1013.1
20260906103556 67 220 0.0 0.0 0.00 0.00 0.00 97 1013.1
20260906103055 67 220 0.0 0.0 0.00 0.00 0.00 96 1013.1
20260906102555 67 220 0.0 0.0 0.00 0.00 0.00 96 1012.9
20260906102055 68 220 0.0 0.0 0.00 0.00 0.00 96 1012.9
20260906101555 68 220 0.0 0.0 0.00 0.00 0.00 96 1012.9
20260906101055 68 220 0.0 0.0 0.00 0.00 0.00 96 1012.9
20260906100554 68 220 0.0 0.0 0.00 0.00 0.00 96 1012.7
20260906100054 68 220 0.0 0.0 0.00 0.00 0.00 96 1012.7
20260906095553 68 220 0.0 0.0 0.00 0.00 0.00 96 1012.6
20260906095053 68 220 0.0 0.0 0.00 0.00 0.00 96 1012.6
20260906094554 67 220 0.0 0.0 0.00 0.00 0.00 96 1012.6
20260906094052 67 220 0.0 0.0 0.00 0.00 0.00 96 1012.6
20260906093552 68 220 0.0 0.0 0.00 0.00 0.00 96 1012.7
20260906093108 68 220 0.0 0.0 0.00 0.00 0.00 96 1012.5
20260906092553 68 220 0.0 0.0 0.00 0.00 0.00 96 1012.3
20260906092051 68 220 0.0 0.0 0.00 0.00 0.00 96 1012.2
20260906091551 68 220 0.0 0.0 0.00 0.00 0.00 96 1012.0
20260906091053 68 220 0.0 0.0 0.00 0.00 0.00 96 1012.1
20260906090550 68 220 0.0 0.0 0.00 0.00 0.00 96 1012.1
20260906090051 68 220 0.0 0.0 0.00 0.00 0.00 96 1012.0
20260906085548 68 220 0.0 0.0 0.00 0.00 0.00 95 1012.1
20260906085052 69 220 0.0 0.0 0.00 0.00 0.00 96 1012.0
20260906084548 69 220 0.0 0.0 0.00 0.00 0.00 95 1012.1
20260906084051 69 220 0.0 0.0 0.00 0.00 0.00 95 1012.1
20260906083547 69 220 0.0 0.0 0.00 0.00 0.00 95 1012.1
20260906083047 69 220 0.0 0.0 0.00 0.00 0.00 95 1012.0
20260906082546 69 220 0.0 0.0 0.00 0.00 0.00 95 1012.0
20260906082046 69 220 0.0 0.0 0.00 0.00 0.00 95 1012.0
20260906081545 69 220 0.0 0.0 0.00 0.00 0.00 95 1012.0
20260906081045 69 220 0.0 0.0 0.00 0.00 0.00 95 1011.9
20260906080547 69 220 0.0 0.0 0.00 0.00 0.00 95 1011.9
20260906080045 69 220 0.0 0.0 0.00 0.00 0.00 95 1012.0
20260906075544 69 220 0.0 0.0 0.00 0.00 0.00 95 1011.9
20260906075044 69 220 0.0 0.0 0.00 0.00 0.00 95 1011.9
20260906074544 69 220 0.0 0.0 0.00 0.00 0.00 95 1011.8
20260906074043 69 313 0.0 0.0 0.00 0.00 0.00 95 1011.8
20260906073547 69 313 0.0 0.0 0.00 0.00 0.00 95 1011.9
20260906073043 69 313 0.0 0.0 0.00 0.00 0.00 95 1011.7
20260906072543 69 313 0.0 0.0 0.00 0.00 0.00 95 1011.8
20260906072043 69 313 0.0 0.0 0.00 0.00 0.00 95 1011.9
20260906071544 69 313 0.0 1.0 0.00 0.00 0.00 94 1011.8
20260906071042 69 313 0.0 1.0 0.00 0.00 0.00 94 1011.8
20260906070541 70 313 0.0 0.0 0.00 0.00 0.00 94 1011.8
20260906070040 70 313 0.0 0.0 0.00 0.00 0.00 94 1011.9
20260906065541 70 313 0.0 0.0 0.00 0.00 0.00 95 1012.0
20260906065039 70 313 0.0 0.0 0.00 0.00 0.00 95 1012.2
20260906064538 70 313 0.0 0.0 0.00 0.00 0.00 94 1012.2
20260906064038 70 313 0.0 0.0 0.00 0.00 0.00 94 1012.2
20260906063536 70 313 0.0 0.0 0.00 0.00 0.00 94 1012.3
20260906063035 70 313 0.0 0.0 0.00 0.00 0.00 94 1012.6
20260906062536 70 313 0.0 0.0 0.00 0.00 0.00 94 1012.6
20260906062036 70 313 0.0 1.0 0.00 0.00 0.00 95 1012.6
20260906061535 70 313 0.0 1.0 0.00 0.00 0.00 95 1012.6
20260906061033 70 250 0.0 0.0 0.00 0.00 0.00 94 1012.7
20260906060533 70 250 0.0 0.0 0.00 0.00 0.00 95 1012.8
20260906060033 70 227 0.0 0.0 0.00 0.00 0.00 94 1012.9
20260906055531 70 227 0.0 0.0 0.00 0.00 0.00 94 1013.0
20260906055031 70 227 0.0 0.0 0.00 0.00 0.00 94 1013.0
20260906054530 70 227 0.0 0.0 0.00 0.00 0.00 94 1013.0
20260906054030 70 227 0.0 0.0 0.00 0.00 0.00 94 1013.0
20260906053530 70 227 0.0 0.0 0.00 0.00 0.00 94 1013.0
20260906053031 70 227 0.0 0.0 0.00 0.00 0.00 94 1013.1
20260906052529 70 227 0.0 0.0 0.00 0.00 0.00 94 1013.1
20260906052029 70 227 0.0 0.0 0.00 0.00 0.00 94 1013.2
20260906051533 70 227 0.0 0.0 0.00 0.00 0.00 93 1013.1
20260906051029 70 227 0.0 0.0 0.00 0.00 0.00 94 1013.3
20260906050528 70 227 0.0 0.0 0.00 0.00 0.00 94 1013.4
20260906050029 70 215 0.0 0.0 0.00 0.00 0.00 94 1013.5
20260906045527 70 215 0.0 4.0 0.00 0.00 0.00 94 1013.3
20260906045027 70 218 2.0 4.0 0.00 0.00 0.00 94 1013.3
20260906044526 70 263 0.0 1.0 0.00 0.00 0.00 93 1013.2
20260906044026 70 263 0.0 0.0 0.00 0.00 0.00 93 1013.1
20260906043525 70 263 0.0 0.0 0.00 0.00 0.00 93 1013.2
20260906043025 70 263 0.0 0.0 0.00 0.00 0.00 93 1013.3
20260906042524 71 263 0.0 0.0 0.00 0.00 0.00 93 1013.3
20260906042024 71 263 0.0 0.0 0.00 0.00 0.00 93 1013.3
20260906041525 71 263 0.0 0.0 0.00 0.00 0.00 93 1013.4
20260906041023 71 263 0.0 0.0 0.00 0.00 0.00 92 1013.5
20260906040522 71 263 0.0 0.0 0.00 0.00 0.00 92 1013.4
20260906040020 71 263 0.0 0.0 0.00 0.00 0.00 92 1013.3
20260906035519 72 263 0.0 0.0 0.00 0.00 0.00 91 1013.5
20260906035019 72 263 0.0 0.0 0.00 0.00 0.00 91 1013.6
20260906034519 72 263 0.0 0.0 0.00 0.00 0.00 90 1013.6
20260906034018 73 263 0.0 0.0 0.00 0.00 0.00 90 1013.6
20260906033519 73 263 0.0 0.0 0.00 0.00 0.00 90 1013.6
20260906033019 73 262 0.0 0.0 0.00 0.00 0.00 90 1013.5
20260906032518 73 263 0.0 0.0 0.00 0.00 0.00 90 1013.4
20260906032019 73 263 0.0 0.0 0.00 0.00 0.00 90 1013.5
20260906031518 73 263 0.0 0.0 0.00 0.00 0.00 90 1013.6
20260906031019 73 262 0.0 1.0 0.00 0.00 0.00 90 1013.7
20260906030518 73 263 0.0 1.0 0.00 0.00 0.00 90 1013.6
20260906030018 73 263 0.0 0.0 0.00 0.00 0.00 91 1013.5
20260906025517 73 263 0.0 0.0 0.00 0.00 0.00 91 1013.3
20260906025017 73 263 0.0 0.0 0.00 0.00 0.00 91 1013.2
20260906024517 73 263 0.0 0.0 0.00 0.00 0.00 91 1013.2
20260906024017 73 263 0.0 0.0 0.00 0.00 0.00 91 1013.2
20260906023520 73 263 0.0 1.0 0.00 0.00 0.00 92 1013.3
20260906023021 73 263 0.0 1.0 0.00 0.00 0.00 92 1013.2
20260906022517 73 263 0.0 0.0 0.00 0.00 0.00 92 1013.4
20260906022017 73 263 0.0 0.0 0.00 0.00 0.00 92 1013.2
20260906021517 73 263 0.0 0.0 0.00 0.00 0.00 92 1013.2
20260906021019 73 263 0.0 0.0 0.00 0.00 0.00 91 1013.0
20260906020516 73 263 0.0 0.0 0.00 0.00 0.00 91 1013.2
20260906020017 73 263 0.0 0.0 0.00 0.00 0.00 91 1013.2
20260906015515 73 263 0.0 0.0 0.00 0.00 0.00 91 1013.1
20260906015015 73 263 0.0 0.0 0.00 0.00 0.00 91 1012.9
20260906014521 73 263 0.0 0.0 0.00 0.00 0.00 90 1013.0
20260906014016 73 263 0.0 0.0 0.00 0.00 0.00 89 1013.0
20260906013515 74 263 0.0 1.0 0.00 0.00 0.00 89 1013.2
20260906013023 74 263 0.0 1.0 0.00 0.00 0.00 88 1013.1
20260906012515 74 263 0.0 0.0 0.00 0.00 0.00 88 1012.9
20260906012017 75 263 0.0 0.0 0.00 0.00 0.00 87 1012.7
20260906011519 75 263 0.0 0.0 0.00 0.00 0.00 87 1012.7
20260906011014 75 262 0.0 0.0 0.00 0.00 0.00 88 1012.6
20260906010515 75 263 0.0 0.0 0.00 0.00 0.00 88 1012.6
20260906010015 75 263 0.0 1.0 0.00 0.00 0.00 88 1012.5
20260906005518 75 263 0.0 1.0 0.00 0.00 0.00 88 1012.5
20260906005015 75 263 0.0 2.0 0.00 0.00 0.00 87 1012.6
20260906004514 75 263 0.0 2.0 0.00 0.00 0.00 87 1012.6
20260906004016 75 263 0.0 0.0 0.00 0.00 0.00 87 1012.5
20260906003513 75 263 0.0 0.0 0.00 0.00 0.00 86 1012.4
20260906003013 75 263 0.0 0.0 0.00 0.00 0.00 86 1012.4
20260906002514 76 263 0.0 0.0 0.00 0.00 0.00 85 1012.1
20260906002013 76 262 0.0 0.0 0.00 0.00 0.00 84 1012.0
20260906001513 76 263 0.0 0.0 0.00 0.00 0.00 83 1012.0
20260906001012 76 263 0.0 0.0 0.00 0.00 0.00 83 1012.0
20260906000513 76 263 0.0 0.0 0.00 0.00 0.00 83 1011.8
20260906000012 76 263 0.0 0.0 0.00 0.00 0.00 82 1011.7
20260905235512 77 263 0.0 0.0 0.00 0.00 0.00 82 1011.7
20260905235012 77 263 0.0 0.0 0.00 0.00 0.00 81 1011.7
20260905234511 77 263 0.0 0.0 0.00 0.00 0.00 80 1011.7
20260905234011 77 263 0.0 0.0 0.00 0.00 0.00 80 1011.6
20260905233512 78 263 0.0 0.0 0.00 0.00 0.00 79 1011.6
20260905233015 78 263 0.0 0.0 0.00 0.00 0.00 78 1011.7
20260905232514 78 263 0.0 1.0 0.00 0.00 0.00 77 1011.7
20260905232011 80 263 0.0 2.0 0.00 0.00 0.00 75 1011.7
20260905231511 80 263 0.0 4.0 0.00 0.00 0.00 74 1011.5
20260905231014 80 254 1.0 4.0 0.00 0.00 0.00 73 1011.5
20260905230511 80 258 0.0 2.0 0.00 0.00 0.00 75 1011.5
20260905230013 80 274 0.0 3.0 0.00 0.00 0.00 77 1011.7
20260905225511 80 244 0.0 0.0 0.00 0.00 0.00 76 1011.5
20260905225010 80 244 0.0 2.0 0.00 0.00 0.00 75 1011.4
20260905224510 81 234 0.0 2.0 0.00 0.00 0.00 73 1011.4
20260905224009 81 274 0.0 2.0 0.00 0.00 0.00 72 1011.6
20260905223509 81 274 0.0 3.0 0.00 0.00 0.00 72 1011.8
20260905223009 81 323 0.0 4.0 0.00 0.00 0.00 72 1011.9
20260905222610 82 267 0.0 4.0 0.00 0.00 0.00 71 1011.7
20260905222008 82 271 0.0 3.0 0.00 0.00 0.00 71 1011.9
20260905221513 82 258 1.0 4.0 0.00 0.00 0.00 70 1011.8
20260905221009 81 238 2.0 6.0 0.00 0.00 0.00 71 1011.8
20260905220508 82 271 1.0 6.0 0.00 0.00 0.00 70 1011.8
20260905220113 81 287 1.0 5.0 0.00 0.00 0.00 72 1011.8
20260905215507 81 273 0.0 0.0 0.00 0.00 0.00 74 1012.0
20260905215007 81 273 0.0 0.0 0.00 0.00 0.00 72 1012.0
20260905214507 82 273 0.0 4.0 0.00 0.00 0.00 72 1012.0
20260905214007 82 190 1.0 4.0 0.00 0.00 0.00 71 1012.1
20260905213512 81 202 1.0 3.0 0.00 0.00 0.00 70 1012.1
20260905213007 82 269 0.0 2.0 0.00 0.00 0.00 74 1012.2